Location: Krasnoyarskiy Pitomnik
(51.1333°N, 71.6167°E)
Time: 09:54:18
(UTC+00:00)

CSL-04 Rocket - Pass Details

Date: 22 October 2021
Orbit: 805 x 861 km, 98.9° (Epoch: 06 December)

Event Time Altitude Azimuth Distance (km) Brightness Sun altitude
Exits shadow 14:25:05 26° 158° (SSE) 1,632 4.9 -22.4°
Maximum altitude 14:28:21 84° 73° (ENE) 873 3.6 -22.9°
Drops below altitude 10° 14:33:57 10° 346° (NNW) 2,511 6.5 -23.7°
Sets 14:36:21 0° 346° (NNW) 3,451 7.2 -24.1°
